Location: Namasale
(1.5000°N, 32.6167°E)
Time: 20:02:39
(UTC+00:00)

ARIANE 5 R/B - Pass Details

Date: 09 April 2020
Orbit: 555 x 35986 km, 8.2° (Epoch: 02 June)

Event Time Altitude Azimuth Distance (km) Brightness Sun altitude
Rises 16:11:58 0° 283° (WNW) 3,511 9.2 -5.0°
Reaches altitude 10° 16:14:49 10° 289° (WNW) 2,032 6.9 -5.7°
Maximum altitude 16:18:18 49° 7° (N) 710 2.9 -6.6°
Drops below altitude 10° 16:22:10 10° 85° (E) 2,258 4.8 -7.5°
Enters shadow 16:22:36 - 86° (E) 2,480 5.0 -7.6°
